contact:dominique.lefevre@mio.osupytheas.fr, maurice.libes@osupytheas.fr, didier.mallarino@osupytheas.fr
Project:EMSO http://www.emso-fr.org/EMSO-France
Depth: 2436.0 m
Title:EMSO Ligure Ouest : Data MII capteur MICROCAT
DateTime_Computer,Latitude,Longitude,Temperature,Conductivity,Pressure,DateTime_Instrument
DateTime_Computer,Latitude,Longitude,degC,S m-1,dbar,DateTime_Instrument
2023-01-15T00:02:48Z,42.805,6.029,13.3021,4.60073,2470.646,2023-1-15T02:09:05Z
2023-01-15T00:05:51Z,42.805,6.029,13.3025,4.60073,2470.646,2023-1-15T02:12:08Z
2023-01-15T00:08:54Z,42.805,6.029,13.3023,4.60073,2470.637,2023-1-15T02:15:11Z
2023-01-15T00:11:57Z,42.805,6.029,13.3023,4.60074,2470.624,2023-1-15T02:18:14Z
2023-01-15T00:15:01Z,42.805,6.029,13.3021,4.60073,2470.624,2023-1-15T02:21:18Z
2023-01-15T00:18:04Z,42.805,6.029,13.3024,4.60073,2470.624,2023-1-15T02:24:21Z
2023-01-15T00:21:07Z,42.805,6.029,13.3021,4.60073,2470.661,2023-1-15T02:27:24Z
2023-01-15T00:24:10Z,42.805,6.029,13.3023,4.60075,2470.661,2023-1-15T02:30:27Z
2023-01-15T00:27:13Z,42.805,6.029,13.3021,4.60074,2470.637,2023-1-15T02:33:30Z
2023-01-15T00:30:16Z,42.805,6.029,13.3022,4.60074,2470.661,2023-1-15T02:36:33Z
2023-01-15T00:33:19Z,42.805,6.029,13.3021,4.60072,2470.646,2023-1-15T02:39:36Z
2023-01-15T00:36:22Z,42.805,6.029,13.3021,4.60073,2470.661,2023-1-15T02:42:39Z
2023-01-15T00:39:25Z,42.805,6.029,13.3022,4.60074,2470.624,2023-1-15T02:45:42Z
2023-01-15T00:42:28Z,42.805,6.029,13.3018,4.60072,2470.624,2023-1-15T02:48:45Z
2023-01-15T00:45:31Z,42.805,6.029,13.3023,4.60073,2470.646,2023-1-15T02:51:48Z
2023-01-15T00:48:34Z,42.805,6.029,13.3022,4.60073,2470.646,2023-1-15T02:54:51Z
2023-01-15T00:51:38Z,42.805,6.029,13.3022,4.60074,2470.661,2023-1-15T02:57:55Z
2023-01-15T00:54:41Z,42.805,6.029,13.3022,4.60074,2470.624,2023-1-15T03:00:58Z
2023-01-15T00:57:44Z,42.805,6.029,13.3021,4.60080,2470.624,2023-1-15T03:04:01Z
2023-01-15T01:00:47Z,42.805,6.029,13.3024,4.60072,2470.646,2023-1-15T03:07:04Z
2023-01-15T01:03:50Z,42.805,6.029,13.3019,4.60074,2470.646,2023-1-15T03:10:07Z
2023-01-15T01:06:53Z,42.805,6.029,13.3019,4.60074,2470.661,2023-1-15T03:13:10Z
2023-01-15T01:09:56Z,42.805,6.029,13.3021,4.60072,2470.661,2023-1-15T03:16:13Z
2023-01-15T01:12:59Z,42.805,6.029,13.3017,4.60072,2470.6,2023-1-15T03:19:16Z
2023-01-15T01:16:02Z,42.805,6.029,13.3022,4.60073,2470.646,2023-1-15T03:22:19Z
2023-01-15T01:19:05Z,42.805,6.029,13.3021,4.60074,2470.646,2023-1-15T03:25:22Z
2023-01-15T01:22:08Z,42.805,6.029,13.3020,4.60073,2470.661,2023-1-15T03:28:25Z
2023-01-15T01:25:12Z,42.805,6.029,13.3020,4.60074,2470.624,2023-1-15T03:31:29Z
2023-01-15T01:28:15Z,42.805,6.029,13.3021,4.60072,2470.661,2023-1-15T03:34:32Z
2023-01-15T01:31:18Z,42.805,6.029,13.3020,4.60072,2470.637,2023-1-15T03:37:35Z
2023-01-15T01:34:21Z,42.805,6.029,13.3021,4.60072,2470.624,2023-1-15T03:40:38Z
2023-01-15T01:37:24Z,42.805,6.029,13.3020,4.60072,2470.624,2023-1-15T03:43:41Z
2023-01-15T01:40:27Z,42.805,6.029,13.3021,4.60073,2470.646,2023-1-15T03:46:44Z
2023-01-15T01:43:30Z,42.805,6.029,13.3021,4.60072,2470.624,2023-1-15T03:49:47Z
2023-01-15T01:46:33Z,42.805,6.029,13.3019,4.60073,2470.661,2023-1-15T03:52:50Z
2023-01-15T01:49:36Z,42.805,6.029,13.3019,4.60072,2470.646,2023-1-15T03:55:53Z
2023-01-15T01:52:39Z,42.805,6.029,13.3019,4.60072,2470.6,2023-1-15T03:58:56Z
2023-01-15T01:55:42Z,42.805,6.029,13.3020,4.60072,2470.624,2023-1-15T04:02:00Z
2023-01-15T01:58:45Z,42.805,6.029,13.3019,4.60072,2470.661,2023-1-15T04:05:03Z
2023-01-15T02:01:49Z,42.805,6.029,13.3021,4.60072,2470.646,2023-1-15T04:08:06Z
2023-01-15T02:04:52Z,42.805,6.029,13.3021,4.60072,2470.624,2023-1-15T04:11:09Z
2023-01-15T02:07:55Z,42.805,6.029,13.3021,4.60071,2470.624,2023-1-15T04:14:12Z
2023-01-15T02:10:58Z,42.805,6.029,13.3020,4.60072,2470.661,2023-1-15T04:17:15Z
2023-01-15T02:14:01Z,42.805,6.029,13.3020,4.60072,2470.637,2023-1-15T04:20:18Z
2023-01-15T02:17:04Z,42.805,6.029,13.3021,4.60072,2470.646,2023-1-15T04:23:21Z
2023-01-15T02:20:07Z,42.805,6.029,13.3021,4.60072,2470.6,2023-1-15T04:26:24Z
2023-01-15T02:23:10Z,42.805,6.029,13.3022,4.60072,2470.624,2023-1-15T04:29:27Z
2023-01-15T02:26:13Z,42.805,6.029,13.3020,4.60072,2470.624,2023-1-15T04:32:30Z
2023-01-15T02:29:16Z,42.805,6.029,13.3019,4.60073,2470.637,2023-1-15T04:35:33Z
2023-01-15T02:32:19Z,42.805,6.029,13.3015,4.60071,2470.624,2023-1-15T04:38:37Z
2023-01-15T02:35:23Z,42.805,6.029,13.3019,4.60074,2470.6,2023-1-15T04:41:40Z
2023-01-15T02:38:26Z,42.805,6.029,13.3019,4.60072,2470.6,2023-1-15T04:44:43Z
2023-01-15T02:41:29Z,42.805,6.029,13.3021,4.60072,2470.624,2023-1-15T04:47:46Z
2023-01-15T02:44:32Z,42.805,6.029,13.3022,4.60072,2470.6,2023-1-15T04:50:49Z
2023-01-15T02:47:35Z,42.805,6.029,13.3023,4.60074,2470.637,2023-1-15T04:53:52Z
2023-01-15T02:50:38Z,42.805,6.029,13.3019,4.60076,2470.624,2023-1-15T04:56:55Z
2023-01-15T02:53:41Z,42.805,6.029,13.3021,4.60072,2470.637,2023-1-15T04:59:58Z
2023-01-15T02:56:44Z,42.805,6.029,13.3021,4.60072,2470.624,2023-1-15T05:03:01Z
2023-01-15T02:59:47Z,42.805,6.029,13.3019,4.60072,2470.6,2023-1-15T05:06:04Z
2023-01-15T03:02:50Z,42.805,6.029,13.3021,4.60072,2470.6,2023-1-15T05:09:07Z
2023-01-15T03:05:53Z,42.805,6.029,13.3019,4.60072,2470.6,2023-1-15T05:12:10Z
2023-01-15T03:08:56Z,42.805,6.029,13.3024,4.60072,2470.6,2023-1-15T05:15:14Z
2023-01-15T03:12:00Z,42.805,6.029,13.3024,4.60073,2470.624,2023-1-15T05:18:17Z
2023-01-15T03:15:03Z,42.805,6.029,13.3016,4.60073,2470.6,2023-1-15T05:21:20Z
2023-01-15T03:18:06Z,42.805,6.029,13.3024,4.60071,2470.624,2023-1-15T05:24:23Z
2023-01-15T03:21:09Z,42.805,6.029,13.3024,4.60072,2470.6,2023-1-15T05:27:26Z
2023-01-15T03:24:12Z,42.805,6.029,13.3019,4.60072,2470.624,2023-1-15T05:30:29Z
2023-01-15T03:27:15Z,42.805,6.029,13.3019,4.60072,2470.6,2023-1-15T05:33:32Z
2023-01-15T03:30:18Z,42.805,6.029,13.3020,4.60072,2470.6,2023-1-15T05:36:35Z
2023-01-15T03:33:21Z,42.805,6.029,13.3021,4.60072,2470.6,2023-1-15T05:39:38Z
2023-01-15T03:36:24Z,42.805,6.029,13.3024,4.60074,2470.577,2023-1-15T05:42:41Z
2023-01-15T03:39:27Z,42.805,6.029,13.3019,4.60072,2470.614,2023-1-15T05:45:44Z
2023-01-15T03:42:30Z,42.805,6.029,13.3023,4.60071,2470.6,2023-1-15T05:48:48Z
2023-01-15T03:45:34Z,42.805,6.029,13.3023,4.60072,2470.624,2023-1-15T05:51:51Z
2023-01-15T03:48:37Z,42.805,6.029,13.3022,4.60071,2470.637,2023-1-15T05:54:54Z
2023-01-15T03:51:40Z,42.805,6.029,13.3019,4.60070,2470.624,2023-1-15T05:57:57Z
2023-01-15T03:54:43Z,42.805,6.029,13.3020,4.60072,2470.6,2023-1-15T06:01:00Z
2023-01-15T03:57:46Z,42.805,6.029,13.3022,4.60072,2470.614,2023-1-15T06:04:03Z
2023-01-15T04:00:49Z,42.805,6.029,13.3021,4.60071,2470.614,2023-1-15T06:07:06Z
2023-01-15T04:03:52Z,42.805,6.029,13.3022,4.60071,2470.6,2023-1-15T06:10:09Z
2023-01-15T04:06:55Z,42.805,6.029,13.3019,4.60070,2470.577,2023-1-15T06:13:12Z
2023-01-15T04:09:58Z,42.805,6.029,13.3021,4.60072,2470.6,2023-1-15T06:16:15Z
2023-01-15T04:13:01Z,42.805,6.029,13.3020,4.60071,2470.6,2023-1-15T06:19:18Z
2023-01-15T04:16:04Z,42.805,6.029,13.3021,4.60072,2470.6,2023-1-15T06:22:22Z
2023-01-15T04:19:07Z,42.805,6.029,13.3022,4.60070,2470.577,2023-1-15T06:25:25Z
2023-01-15T04:22:11Z,42.805,6.029,13.3018,4.60072,2470.624,2023-1-15T06:28:28Z
2023-01-15T04:25:14Z,42.805,6.029,13.3018,4.60070,2470.591,2023-1-15T06:31:31Z
2023-01-15T04:28:17Z,42.805,6.029,13.3021,4.60070,2470.591,2023-1-15T06:34:34Z
2023-01-15T04:31:20Z,42.805,6.029,13.3019,4.60070,2470.6,2023-1-15T06:37:37Z
2023-01-15T04:34:23Z,42.805,6.029,13.3021,4.60072,2470.591,2023-1-15T06:40:40Z
2023-01-15T04:37:26Z,42.805,6.029,13.3019,4.60071,2470.6,2023-1-15T06:43:43Z
2023-01-15T04:40:29Z,42.805,6.029,13.3023,4.60073,2470.591,2023-1-15T06:46:46Z
2023-01-15T04:43:32Z,42.805,6.029,13.3020,4.60070,2470.6,2023-1-15T06:49:49Z
2023-01-15T04:46:35Z,42.805,6.029,13.3017,4.60070,2470.637,2023-1-15T06:52:52Z
2023-01-15T04:49:38Z,42.805,6.029,13.3021,4.60072,2470.577,2023-1-15T06:55:55Z
2023-01-15T04:52:41Z,42.805,6.029,13.3019,4.60072,2470.591,2023-1-15T06:58:59Z
2023-01-15T04:55:44Z,42.805,6.029,13.3017,4.60070,2470.539,2023-1-15T07:02:02Z
2023-01-15T04:58:48Z,42.805,6.029,13.3020,4.60072,2470.577,2023-1-15T07:05:05Z
2023-01-15T05:01:51Z,42.805,6.029,13.3019,4.60072,2470.591,2023-1-15T07:08:08Z
2023-01-15T05:04:54Z,42.805,6.029,13.3018,4.60072,2470.6,2023-1-15T07:11:11Z
2023-01-15T05:07:57Z,42.805,6.029,13.3019,4.60074,2470.591,2023-1-15T07:14:14Z
2023-01-15T05:11:00Z,42.805,6.029,13.3019,4.60072,2470.577,2023-1-15T07:17:17Z
2023-01-15T05:14:03Z,42.805,6.029,13.3017,4.60070,2470.577,2023-1-15T07:20:20Z
2023-01-15T05:17:06Z,42.805,6.029,13.3021,4.60074,2470.614,2023-1-15T07:23:23Z
2023-01-15T05:20:09Z,42.805,6.029,13.3020,4.60070,2470.637,2023-1-15T07:26:26Z
2023-01-15T05:23:12Z,42.805,6.029,13.3015,4.60070,2470.591,2023-1-15T07:29:29Z
2023-01-15T05:26:15Z,42.805,6.029,13.3019,4.60070,2470.6,2023-1-15T07:32:33Z
2023-01-15T05:29:18Z,42.805,6.029,13.3023,4.60072,2470.591,2023-1-15T07:35:36Z
2023-01-15T05:32:22Z,42.805,6.029,13.3021,4.60073,2470.614,2023-1-15T07:38:39Z
2023-01-15T05:35:25Z,42.805,6.029,13.3017,4.60070,2470.577,2023-1-15T07:41:42Z
2023-01-15T05:38:28Z,42.805,6.029,13.3025,4.60070,2470.591,2023-1-15T07:44:45Z
2023-01-15T05:41:31Z,42.805,6.029,13.3022,4.60071,2470.577,2023-1-15T07:47:48Z
2023-01-15T05:44:34Z,42.805,6.029,13.3019,4.60069,2470.591,2023-1-15T07:50:51Z
2023-01-15T05:47:37Z,42.805,6.029,13.3019,4.60072,2470.567,2023-1-15T07:53:54Z
2023-01-15T05:50:40Z,42.805,6.029,13.3019,4.60072,2470.577,2023-1-15T07:56:57Z
2023-01-15T05:53:43Z,42.805,6.029,13.3021,4.60074,2470.577,2023-1-15T08:00:00Z
2023-01-15T05:56:46Z,42.805,6.029,13.3020,4.60072,2470.591,2023-1-15T08:03:03Z
2023-01-15T05:59:49Z,42.805,6.029,13.3020,4.60072,2470.591,2023-1-15T08:06:06Z
2023-01-15T06:02:52Z,42.805,6.029,13.3019,4.60072,2470.577,2023-1-15T08:09:10Z
2023-01-15T06:05:55Z,42.805,6.029,13.3019,4.60070,2470.591,2023-1-15T08:12:13Z
2023-01-15T06:08:59Z,42.805,6.029,13.3019,4.60074,2470.553,2023-1-15T08:15:16Z
2023-01-15T06:12:02Z,42.805,6.029,13.3020,4.60071,2470.577,2023-1-15T08:18:19Z
2023-01-15T06:15:05Z,42.805,6.029,13.3017,4.60070,2470.567,2023-1-15T08:21:22Z
2023-01-15T06:18:08Z,42.805,6.029,13.3022,4.60072,2470.591,2023-1-15T08:24:25Z
2023-01-15T06:21:11Z,42.805,6.029,13.3020,4.60070,2470.591,2023-1-15T08:27:28Z
2023-01-15T06:24:14Z,42.805,6.029,13.3020,4.60074,2470.591,2023-1-15T08:30:31Z
2023-01-15T06:27:17Z,42.805,6.029,13.3017,4.60070,2470.553,2023-1-15T08:33:34Z
2023-01-15T06:30:20Z,42.805,6.029,13.3016,4.60070,2470.591,2023-1-15T08:36:37Z
2023-01-15T06:33:23Z,42.805,6.029,13.3017,4.60070,2470.614,2023-1-15T08:39:40Z
2023-01-15T06:36:26Z,42.805,6.029,13.3019,4.60070,2470.591,2023-1-15T08:42:44Z
2023-01-15T06:39:29Z,42.805,6.029,13.3022,4.60070,2470.567,2023-1-15T08:45:47Z
2023-01-15T06:42:33Z,42.805,6.029,13.3021,4.60070,2470.614,2023-1-15T08:48:50Z
2023-01-15T06:45:36Z,42.805,6.029,13.3017,4.60072,2470.577,2023-1-15T08:51:53Z
2023-01-15T06:48:39Z,42.805,6.029,13.3022,4.60072,2470.567,2023-1-15T08:54:56Z
2023-01-15T06:51:42Z,42.805,6.029,13.3021,4.60072,2470.553,2023-1-15T08:57:59Z
2023-01-15T06:54:45Z,42.805,6.029,13.3018,4.60072,2470.586,2023-1-15T09:01:02Z
2023-01-15T06:57:48Z,42.805,6.029,13.3015,4.60070,2470.553,2023-1-15T09:04:05Z
2023-01-15T07:00:51Z,42.805,6.029,13.3016,4.60071,2470.544,2023-1-15T09:07:08Z
2023-01-15T07:03:54Z,42.805,6.029,13.3021,4.60072,2470.577,2023-1-15T09:10:11Z
2023-01-15T07:06:57Z,42.805,6.029,13.3020,4.60075,2470.577,2023-1-15T09:13:14Z
2023-01-15T07:10:00Z,42.805,6.029,13.3022,4.60076,2470.6,2023-1-15T09:16:18Z
2023-01-15T07:13:03Z,42.805,6.029,13.3015,4.60072,2470.577,2023-1-15T09:19:21Z
2023-01-15T07:16:06Z,42.805,6.029,13.3019,4.60072,2470.591,2023-1-15T09:22:24Z
2023-01-15T07:19:10Z,42.805,6.029,13.3019,4.60071,2470.591,2023-1-15T09:25:27Z
2023-01-15T07:22:13Z,42.805,6.029,13.3021,4.60072,2470.577,2023-1-15T09:28:30Z
2023-01-15T07:25:16Z,42.805,6.029,13.3025,4.60072,2470.553,2023-1-15T09:31:33Z
2023-01-15T07:28:19Z,42.805,6.029,13.3020,4.60072,2470.637,2023-1-15T09:34:36Z
2023-01-15T07:31:22Z,42.805,6.029,13.3015,4.60070,2470.577,2023-1-15T09:37:39Z
2023-01-15T07:34:25Z,42.805,6.029,13.3021,4.60072,2470.577,2023-1-15T09:40:42Z
2023-01-15T07:37:28Z,42.805,6.029,13.3020,4.60077,2470.577,2023-1-15T09:43:45Z
2023-01-15T07:40:31Z,42.805,6.029,13.3017,4.60072,2470.6,2023-1-15T09:46:48Z
2023-01-15T07:43:34Z,42.805,6.029,13.3021,4.60072,2470.591,2023-1-15T09:49:51Z
2023-01-15T07:46:37Z,42.805,6.029,13.3023,4.60071,2470.553,2023-1-15T09:52:55Z
2023-01-15T07:49:40Z,42.805,6.029,13.3023,4.60073,2470.6,2023-1-15T09:55:58Z
2023-01-15T07:52:43Z,42.805,6.029,13.3021,4.60072,2470.563,2023-1-15T09:59:01Z
2023-01-15T07:55:47Z,42.805,6.029,13.3018,4.60072,2470.591,2023-1-15T10:02:04Z
2023-01-15T07:58:50Z,42.805,6.029,13.3019,4.60073,2470.567,2023-1-15T10:05:07Z
2023-01-15T08:01:53Z,42.805,6.029,13.3019,4.60073,2470.577,2023-1-15T10:08:10Z
2023-01-15T08:04:56Z,42.805,6.029,13.3017,4.60072,2470.563,2023-1-15T10:11:13Z
2023-01-15T08:07:59Z,42.805,6.029,13.3019,4.60071,2470.624,2023-1-15T10:14:16Z
2023-01-15T08:11:02Z,42.805,6.029,13.3021,4.60075,2470.591,2023-1-15T10:17:19Z
2023-01-15T08:14:05Z,42.805,6.029,13.3022,4.60072,2470.624,2023-1-15T10:20:22Z
2023-01-15T08:17:08Z,42.805,6.029,13.3023,4.60072,2470.591,2023-1-15T10:23:25Z
2023-01-15T08:20:11Z,42.805,6.029,13.3024,4.60072,2470.6,2023-1-15T10:26:29Z
2023-01-15T08:23:14Z,42.805,6.029,13.3016,4.60073,2470.614,2023-1-15T10:29:32Z
2023-01-15T08:26:18Z,42.805,6.029,13.3021,4.60074,2470.591,2023-1-15T10:32:35Z
2023-01-15T08:29:21Z,42.805,6.029,13.3023,4.60072,2470.614,2023-1-15T10:35:38Z
2023-01-15T08:32:24Z,42.805,6.029,13.3019,4.60074,2470.6,2023-1-15T10:38:41Z
2023-01-15T08:35:27Z,42.805,6.029,13.3019,4.60072,2470.614,2023-1-15T10:41:44Z
2023-01-15T08:38:30Z,42.805,6.029,13.3023,4.60072,2470.6,2023-1-15T10:44:47Z
2023-01-15T08:41:33Z,42.805,6.029,13.3021,4.60074,2470.624,2023-1-15T10:47:50Z
2023-01-15T08:44:36Z,42.805,6.029,13.3020,4.60074,2470.624,2023-1-15T10:50:53Z
2023-01-15T08:47:39Z,42.805,6.029,13.3019,4.60074,2470.6,2023-1-15T10:53:56Z
2023-01-15T08:50:42Z,42.805,6.029,13.3019,4.60074,2470.624,2023-1-15T10:57:00Z
2023-01-15T08:53:45Z,42.805,6.029,13.3020,4.60074,2470.614,2023-1-15T11:00:03Z
2023-01-15T08:56:48Z,42.805,6.029,13.3019,4.60072,2470.637,2023-1-15T11:03:06Z
2023-01-15T08:59:51Z,42.805,6.029,13.3021,4.60075,2470.624,2023-1-15T11:06:09Z
2023-01-15T09:02:55Z,42.805,6.029,13.3017,4.60074,2470.6,2023-1-15T11:09:12Z
2023-01-15T09:05:58Z,42.805,6.029,13.3021,4.60074,2470.61,2023-1-15T11:12:15Z
2023-01-15T09:09:01Z,42.805,6.029,13.3023,4.60073,2470.637,2023-1-15T11:15:18Z
2023-01-15T09:12:04Z,42.805,6.029,13.3022,4.60072,2470.624,2023-1-15T11:18:21Z
2023-01-15T09:15:07Z,42.805,6.029,13.3019,4.60075,2470.624,2023-1-15T11:21:24Z
2023-01-15T09:18:10Z,42.805,6.029,13.3021,4.60074,2470.624,2023-1-15T11:24:27Z
2023-01-15T09:21:13Z,42.805,6.029,13.3020,4.60073,2470.624,2023-1-15T11:27:30Z
2023-01-15T09:24:16Z,42.805,6.029,13.3021,4.60074,2470.661,2023-1-15T11:30:34Z
2023-01-15T09:27:19Z,42.805,6.029,13.3020,4.60074,2470.637,2023-1-15T11:33:37Z
2023-01-15T09:30:22Z,42.805,6.029,13.3021,4.60073,2470.646,2023-1-15T11:36:40Z
2023-01-15T09:33:25Z,42.805,6.029,13.3021,4.60073,2470.624,2023-1-15T11:39:43Z
2023-01-15T09:36:29Z,42.805,6.029,13.3021,4.60074,2470.624,2023-1-15T11:42:46Z
2023-01-15T09:39:32Z,42.805,6.029,13.3021,4.60074,2470.624,2023-1-15T11:45:49Z
2023-01-15T09:42:35Z,42.805,6.029,13.3019,4.60074,2470.624,2023-1-15T11:48:52Z
2023-01-15T09:45:38Z,42.805,6.029,13.3022,4.60074,2470.624,2023-1-15T11:51:55Z
2023-01-15T09:48:41Z,42.805,6.029,13.3021,4.60073,2470.646,2023-1-15T11:54:58Z
2023-01-15T09:51:44Z,42.805,6.029,13.3023,4.60076,2470.646,2023-1-15T11:58:01Z
2023-01-15T09:54:47Z,42.805,6.029,13.3023,4.60074,2470.633,2023-1-15T12:01:04Z
2023-01-15T09:57:50Z,42.805,6.029,13.3019,4.60074,2470.646,2023-1-15T12:04:08Z
2023-01-15T10:00:53Z,42.805,6.029,13.3021,4.60074,2470.646,2023-1-15T12:07:11Z
2023-01-15T10:03:56Z,42.805,6.029,13.3019,4.60077,2470.646,2023-1-15T12:10:14Z
2023-01-15T10:06:59Z,42.805,6.029,13.3022,4.60074,2470.624,2023-1-15T12:13:17Z
2023-01-15T10:10:03Z,42.805,6.029,13.3021,4.60074,2470.67,2023-1-15T12:16:20Z
2023-01-15T10:13:06Z,42.805,6.029,13.3020,4.60074,2470.67,2023-1-15T12:19:23Z
2023-01-15T10:16:09Z,42.805,6.029,13.3017,4.60074,2470.67,2023-1-15T12:22:26Z
2023-01-15T10:19:12Z,42.805,6.029,13.3023,4.60075,2470.693,2023-1-15T12:25:29Z
2023-01-15T10:22:15Z,42.805,6.029,13.3024,4.60074,2470.646,2023-1-15T12:28:32Z
2023-01-15T10:25:18Z,42.805,6.029,13.3025,4.60074,2470.684,2023-1-15T12:31:35Z
2023-01-15T10:28:21Z,42.805,6.029,13.3022,4.60075,2470.693,2023-1-15T12:34:38Z
2023-01-15T10:31:24Z,42.805,6.029,13.3024,4.60074,2470.67,2023-1-15T12:37:42Z
2023-01-15T10:34:27Z,42.805,6.029,13.3022,4.60074,2470.67,2023-1-15T12:40:45Z
2023-01-15T10:37:30Z,42.805,6.029,13.3024,4.60075,2470.67,2023-1-15T12:43:48Z
2023-01-15T10:40:33Z,42.805,6.029,13.3021,4.60076,2470.693,2023-1-15T12:46:51Z
2023-01-15T10:43:37Z,42.805,6.029,13.3023,4.60079,2470.707,2023-1-15T12:49:54Z
2023-01-15T10:46:40Z,42.805,6.029,13.3021,4.60077,2470.693,2023-1-15T12:52:57Z
2023-01-15T10:49:43Z,42.805,6.029,13.3025,4.60077,2470.693,2023-1-15T12:56:00Z
2023-01-15T10:52:46Z,42.805,6.029,13.3023,4.60077,2470.693,2023-1-15T12:59:03Z
2023-01-15T10:55:49Z,42.805,6.029,13.3024,4.60076,2470.684,2023-1-15T13:02:06Z
2023-01-15T10:58:52Z,42.805,6.029,13.3026,4.60077,2470.693,2023-1-15T13:05:09Z
2023-01-15T11:01:55Z,42.805,6.029,13.3023,4.60077,2470.707,2023-1-15T13:08:12Z
2023-01-15T11:04:58Z,42.805,6.029,13.3020,4.60077,2470.67,2023-1-15T13:11:16Z
2023-01-15T11:08:01Z,42.805,6.029,13.3024,4.60077,2470.684,2023-1-15T13:14:19Z
2023-01-15T11:11:04Z,42.805,6.029,13.3019,4.60077,2470.656,2023-1-15T13:17:22Z
2023-01-15T11:14:07Z,42.805,6.029,13.3022,4.60077,2470.684,2023-1-15T13:20:25Z
2023-01-15T11:17:11Z,42.805,6.029,13.3022,4.60076,2470.717,2023-1-15T13:23:28Z
2023-01-15T11:20:14Z,42.805,6.029,13.3022,4.60077,2470.693,2023-1-15T13:26:31Z
2023-01-15T11:23:17Z,42.805,6.029,13.3024,4.60079,2470.717,2023-1-15T13:29:34Z
2023-01-15T11:26:20Z,42.805,6.029,13.3024,4.60079,2470.717,2023-1-15T13:32:37Z
2023-01-15T11:29:23Z,42.805,6.029,13.3026,4.60078,2470.684,2023-1-15T13:35:40Z
2023-01-15T11:32:26Z,42.805,6.029,13.3023,4.60079,2470.693,2023-1-15T13:38:43Z
2023-01-15T11:35:29Z,42.805,6.029,13.3027,4.60081,2470.717,2023-1-15T13:41:47Z
2023-01-15T11:38:32Z,42.805,6.029,13.3026,4.60081,2470.693,2023-1-15T13:44:50Z
2023-01-15T11:41:35Z,42.805,6.029,13.3025,4.60079,2470.73,2023-1-15T13:47:53Z
2023-01-15T11:44:38Z,42.805,6.029,13.3030,4.60079,2470.717,2023-1-15T13:50:56Z
2023-01-15T11:47:41Z,42.805,6.029,13.3023,4.60079,2470.693,2023-1-15T13:53:59Z
2023-01-15T11:50:45Z,42.805,6.029,13.3029,4.60080,2470.693,2023-1-15T13:57:02Z
2023-01-15T11:53:48Z,42.805,6.029,13.3027,4.60079,2470.707,2023-1-15T14:00:05Z
2023-01-15T11:56:51Z,42.805,6.029,13.3035,4.60105,2470.717,2023-1-15T14:03:08Z
2023-01-15T11:59:54Z,42.805,6.029,13.3046,4.60091,2470.73,2023-1-15T14:06:11Z
2023-01-15T12:02:57Z,42.805,6.029,13.3051,4.60117,2470.707,2023-1-15T14:09:14Z
2023-01-15T12:06:00Z,42.805,6.029,13.3041,4.60121,2470.717,2023-1-15T14:12:17Z
2023-01-15T12:09:03Z,42.805,6.029,13.3042,4.60125,2470.693,2023-1-15T14:15:21Z
2023-01-15T12:12:06Z,42.805,6.029,13.3036,4.60135,2470.693,2023-1-15T14:18:24Z
2023-01-15T12:15:09Z,42.805,6.029,13.3031,4.60118,2470.693,2023-1-15T14:21:27Z
2023-01-15T12:18:12Z,42.805,6.029,13.3026,4.60121,2470.693,2023-1-15T14:24:30Z
2023-01-15T12:21:15Z,42.805,6.029,13.3035,4.60116,2470.684,2023-1-15T14:27:33Z
2023-01-15T12:24:19Z,42.805,6.029,13.3035,4.60128,2470.707,2023-1-15T14:30:36Z
2023-01-15T12:27:22Z,42.805,6.029,13.3031,4.60130,2470.693,2023-1-15T14:33:39Z
2023-01-15T12:30:25Z,42.805,6.029,13.3036,4.60128,2470.717,2023-1-15T14:36:42Z
2023-01-15T12:33:28Z,42.805,6.029,13.3033,4.60121,2470.73,2023-1-15T14:39:45Z
2023-01-15T12:36:31Z,42.805,6.029,13.3040,4.60126,2470.693,2023-1-15T14:42:48Z
2023-01-15T12:39:34Z,42.805,6.029,13.3036,4.60116,2470.73,2023-1-15T14:45:51Z
2023-01-15T12:42:37Z,42.805,6.029,13.3030,4.60116,2470.717,2023-1-15T14:48:55Z
2023-01-15T12:45:40Z,42.805,6.029,13.3041,4.60102,2470.646,2023-1-15T14:51:58Z
2023-01-15T12:48:43Z,42.805,6.029,13.3034,4.60124,2470.693,2023-1-15T14:55:01Z
2023-01-15T12:51:46Z,42.805,6.029,13.3037,4.60142,2470.707,2023-1-15T14:58:04Z
2023-01-15T12:54:49Z,42.805,6.029,13.3036,4.60143,2470.67,2023-1-15T15:01:07Z
2023-01-15T12:57:53Z,42.805,6.029,13.3037,4.60150,2470.693,2023-1-15T15:04:10Z
2023-01-15T13:00:56Z,42.805,6.029,13.3037,4.60131,2470.67,2023-1-15T15:07:13Z
2023-01-15T13:03:59Z,42.805,6.029,13.3039,4.60134,2470.693,2023-1-15T15:10:16Z
2023-01-15T13:07:02Z,42.805,6.029,13.3037,4.60124,2470.693,2023-1-15T15:13:19Z
2023-01-15T13:10:05Z,42.805,6.029,13.3036,4.60143,2470.646,2023-1-15T15:16:22Z
2023-01-15T13:13:08Z,42.805,6.029,13.3039,4.60131,2470.693,2023-1-15T15:19:26Z
2023-01-15T13:16:11Z,42.805,6.029,13.3039,4.60159,2470.73,2023-1-15T15:22:29Z
2023-01-15T13:19:14Z,42.805,6.029,13.3036,4.60137,2470.707,2023-1-15T15:25:32Z
2023-01-15T13:22:17Z,42.805,6.029,13.3031,4.60132,2470.717,2023-1-15T15:28:35Z
2023-01-15T13:25:20Z,42.805,6.029,13.3043,4.60152,2470.67,2023-1-15T15:31:38Z
2023-01-15T13:28:23Z,42.805,6.029,13.3046,4.60129,2470.717,2023-1-15T15:34:41Z
2023-01-15T13:31:27Z,42.805,6.029,13.3047,4.60144,2470.67,2023-1-15T15:37:44Z
2023-01-15T13:34:30Z,42.805,6.029,13.3057,4.60137,2470.707,2023-1-15T15:40:47Z
2023-01-15T13:37:33Z,42.805,6.029,13.3041,4.60135,2470.684,2023-1-15T15:43:50Z
2023-01-15T13:40:36Z,42.805,6.029,13.3039,4.60127,2470.67,2023-1-15T15:46:53Z
2023-01-15T13:43:39Z,42.805,6.029,13.3031,4.60122,2470.661,2023-1-15T15:49:56Z
2023-01-15T13:46:42Z,42.805,6.029,13.3034,4.60142,2470.707,2023-1-15T15:53:00Z
2023-01-15T13:49:45Z,42.805,6.029,13.3029,4.60110,2470.656,2023-1-15T15:56:03Z
2023-01-15T13:52:48Z,42.805,6.029,13.3038,4.60135,2470.67,2023-1-15T15:59:06Z
2023-01-15T13:55:51Z,42.805,6.029,13.3036,4.60133,2470.684,2023-1-15T16:02:09Z
2023-01-15T13:58:54Z,42.805,6.029,13.3034,4.60118,2470.684,2023-1-15T16:05:12Z
2023-01-15T14:01:58Z,42.805,6.029,13.3031,4.60108,2470.684,2023-1-15T16:08:15Z
2023-01-15T14:05:01Z,42.805,6.029,13.3031,4.60107,2470.646,2023-1-15T16:11:18Z
2023-01-15T14:08:04Z,42.805,6.029,13.3036,4.60125,2470.684,2023-1-15T16:14:21Z
2023-01-15T14:11:07Z,42.805,6.029,13.3039,4.60135,2470.67,2023-1-15T16:17:24Z
2023-01-15T14:14:10Z,42.805,6.029,13.3049,4.60147,2470.67,2023-1-15T16:20:27Z
2023-01-15T14:17:13Z,42.805,6.029,13.3041,4.60128,2470.67,2023-1-15T16:23:30Z
2023-01-15T14:20:16Z,42.805,6.029,13.3046,4.60140,2470.707,2023-1-15T16:26:34Z
2023-01-15T14:23:19Z,42.805,6.029,13.3033,4.60117,2470.67,2023-1-15T16:29:37Z
2023-01-15T14:26:22Z,42.805,6.029,13.3025,4.60116,2470.693,2023-1-15T16:32:40Z
2023-01-15T14:29:25Z,42.805,6.029,13.3034,4.60112,2470.646,2023-1-15T16:35:43Z
2023-01-15T14:32:28Z,42.805,6.029,13.3034,4.60108,2470.684,2023-1-15T16:38:46Z
2023-01-15T14:35:32Z,42.805,6.029,13.3031,4.60137,2470.67,2023-1-15T16:41:49Z
2023-01-15T14:38:35Z,42.805,6.029,13.3029,4.60121,2470.67,2023-1-15T16:44:52Z
2023-01-15T14:41:38Z,42.805,6.029,13.3025,4.60131,2470.67,2023-1-15T16:47:55Z
2023-01-15T14:44:41Z,42.805,6.029,13.3035,4.60117,2470.661,2023-1-15T16:50:58Z
2023-01-15T14:47:44Z,42.805,6.029,13.3034,4.60132,2470.646,2023-1-15T16:54:01Z
2023-01-15T14:50:47Z,42.805,6.029,13.3032,4.60140,2470.646,2023-1-15T16:57:05Z
2023-01-15T14:53:50Z,42.805,6.029,13.3039,4.60119,2470.67,2023-1-15T17:00:08Z
2023-01-15T14:56:53Z,42.805,6.029,13.3041,4.60106,2470.661,2023-1-15T17:03:11Z
2023-01-15T14:59:56Z,42.805,6.029,13.3029,4.60127,2470.684,2023-1-15T17:06:14Z
2023-01-15T15:02:59Z,42.805,6.029,13.3038,4.60132,2470.646,2023-1-15T17:09:17Z
2023-01-15T15:06:02Z,42.805,6.029,13.3038,4.60136,2470.679,2023-1-15T17:12:20Z
2023-01-15T15:09:06Z,42.805,6.029,13.3049,4.60127,2470.646,2023-1-15T17:15:23Z
2023-01-15T15:12:09Z,42.805,6.029,13.3046,4.60104,2470.67,2023-1-15T17:18:26Z
2023-01-15T15:15:12Z,42.805,6.029,13.3041,4.60115,2470.684,2023-1-15T17:21:29Z